Regional Weather Roundup
Issued by NWS

Home | Current Version | Previous Version | Graphics & Text | Print | Product List | Glossary On
Versions: 1 2 3 4 5 6 7 8 9 10 11 12 13 14 15 16 17 18 19 20 21 22 23 24 25 26 27
000
ASUS45 KSLC 031010
RWRUT

UTAH REGIONAL WEATHER ROUNDUP
NATIONAL WEATHER SERVICE SALT LAKE CITY UT
400 AM MDT TUE MAY 03 2016

UTZ001>011-023>025-031100-

NORTHERN UTAH

CITY           SKY/WX    TMP DP  RH WIND       PRES   REMARKS
BRIGHAM CITY   CLEAR     44  35  70 NW5       30.20R
HILL AFB       CLEAR     46  31  56 E16       30.19S
LOGAN          CLEAR     41  34  76 CALM      30.21R
OGDEN          CLEAR     46  33  60 S9        30.18S
PROVO AIRPORT  CLEAR     45  30  57 E7        30.21R
SALT LAKE CITY CLEAR     49  35  58 S6        30.18S
VERNAL         CLEAR     40  22  48 W6        30.21R
WENDOVER       CLEAR     46  36  66 CALM      30.19R
HEBER CITY     CLEAR     34  30  86 CALM      30.24R

$$

UTZ012>022-026-027-031100-

SOUTHERN/CENTRAL UTAH

CITY           SKY/WX    TMP DP  RH WIND       PRES   REMARKS
BLANDING       CLEAR     40  33  77 N9        30.25S WCI  33
BRYCE CANYON   CLEAR     28  26  92 W7        30.27F WCI  21
CEDAR CITY     CLEAR     37  35  92 N3        30.19S
DELTA          CLEAR     43  36  75 NE3       30.20R
HANKSVILLE     CLEAR     43  37  81 CALM      30.19R
MILFORD        CLEAR     39  33  79 CALM      30.19
MOAB/CYNLANDS  CLEAR     45  36  70 CALM      30.14S
PRICE          CLEAR     40  30  67 N5        30.20S
ST GEORGE      SUNNY     54  39  58 CALM      30.13S
KANAB          CLEAR     45  37  76 N13       30.21F

$$

REGIONAL REPORTS     COLORADO/ARIZONA

CITY           SKY/WX    TMP DP  RH WIND       PRES   REMARKS
CRAIG, CO      CLEAR     28  24  85 CALM      30.24R
GRAND JUNCTION CLEAR     37  35  92 E3        30.17R
RIFLE          CLEAR     36  29  75 CALM      30.21R
MONTROSE       CLEAR     40  31  70 SE9       30.22R WCI  34
CORTEZ         CLEAR     32  30  92 E5        30.19S WCI  27
PAGE, AZ       CLEAR     52  39  61 CALM      30.15S
GRAND CANYON   CLEAR     31  28  89 N3        30.20S
KINGMAN        CLEAR     55  38  52 E9        30.07S
FLAGSTAFF      CLEAR     30  29  96 CALM      30.19S

$$

REGIONAL REPORTS    NEVADA/IDAHO/WYOMING

CITY           SKY/WX    TMP DP  RH WIND       PRES   REMARKS
LAS VEGAS, NV  CLEAR     67  37  33 CALM      30.00S
ELY            CLEAR     32  29  88 S7        30.25R WCI  26
ELKO           CLEAR     39  33  79 CALM      30.19R
POCATELLO, ID  CLEAR     35  31  85 NE5       30.20R WCI  31
BURLEY         CLEAR     41  37  86 CALM      30.16S
EVANSTON, WY   CLOUDY    37  24  59 S7        30.27S WCI  32
ROCK SPRINGS   CLOUDY    36  21  54 NE3       30.25S
KEMMERER         N/A     34  21  60 NW8       30.28R WCI  27

$$




USA.gov is the U.S. government's official web portal to all federal, state and local government web resources and services.